When you browse on this site, cookies collect data to enhance your experience and personalize the content and advertising you see.
Visit our Privacy Policy to learn more. By continuing to use the site, you agree to this use of cookies and data.
  • In Belgien
  • Länderverzeichnis
  • Für 7 Tage
  • Wassertemperatur
  • Wetterkarte
  • Widgets
  • user-avatar
    Anmelden

    Stündliche Wetter Biskira

    Heute, 19 September, Donnerstag

    Zeit Temperatur Niederschläge Wind Luftdruck Luftfeuchtigkeit
    00:00 +34°C° 0 mm 3 m/S 753 mmHg 37%
    01:00 +33°C° 0 mm 3 m/S 753 mmHg 41%
    02:00 +31°C° 0 mm 3 m/S 752 mmHg 45%
    03:00 +30°C° 0 mm 2 m/S 752 mmHg 49%
    04:00 +30°C° 0 mm 2 m/S 752 mmHg 49%
    05:00 +30°C° 0 mm 2 m/S 753 mmHg 50%
    06:00 +30°C° 0 mm 2 m/S 753 mmHg 50%
    07:00 +31°C° 0 mm 2 m/S 753 mmHg 45%
    08:00 +32°C° 0 mm 1 m/S 753 mmHg 40%
    09:00 +34°C° 0 mm 1 m/S 754 mmHg 35%
    10:00 +36°C° 0 mm 2 m/S 753 mmHg 31%
    11:00 +37°C° 0 mm 2 m/S 753 mmHg 28%
    12:00 +38°C° 0 mm 3 m/S 753 mmHg 24%
    13:00 +39°C° 0 mm 3 m/S 752 mmHg 23%
    14:00 +39°C° 0 mm 3 m/S 752 mmHg 22%
    15:00 +39°C° 0 mm 3 m/S 752 mmHg 21%
    16:00 +39°C° 0 mm 3 m/S 752 mmHg 23%
    17:00 +38°C° 0 mm 2 m/S 752 mmHg 25%
    18:00 +36°C° 0 mm 1 m/S 752 mmHg 27%
    19:00 +37°C° 0 mm 2 m/S 752 mmHg 27%
    20:00 +36°C° 0 mm 2 m/S 753 mmHg 28%
    21:00 +35°C° 0 mm 2 m/S 753 mmHg 28%
    22:00 +35°C° 0 mm 2 m/S 753 mmHg 29%
    23:00 +35°C° 0 mm 2 m/S 753 mmHg 29%

    Morgen, 20 September, Freitag

    Zeit Temperatur Niederschläge Wind Luftdruck Luftfeuchtigkeit
    00:00 +34°C° 0 mm 2 m/S 753 mmHg 30%
    01:00 +34°C° 0 mm 3 m/S 752 mmHg 30%
    02:00 +33°C° 0 mm 3 m/S 752 mmHg 31%
    03:00 +33°C° 0 mm 3 m/S 752 mmHg 31%
    04:00 +33°C° 0 mm 3 m/S 752 mmHg 31%
    05:00 +33°C° 0 mm 3 m/S 752 mmHg 31%
    06:00 +31°C° 0 mm 3 m/S 752 mmHg 32%
    07:00 +34°C° 0 mm 3 m/S 752 mmHg 28%
    08:00 +35°C° 0 mm 4 m/S 753 mmHg 25%
    09:00 +37°C° 0 mm 4 m/S 753 mmHg 22%
    10:00 +38°C° 0 mm 4 m/S 753 mmHg 21%
    11:00 +39°C° 0 mm 3 m/S 753 mmHg 19%
    12:00 +39°C° 0 mm 3 m/S 753 mmHg 17%
    13:00 +40°C° 0 mm 3 m/S 752 mmHg 17%
    14:00 +40°C° 0 mm 2 m/S 752 mmHg 16%
    15:00 +40°C° 0 mm 2 m/S 752 mmHg 16%
    16:00 +39°C° 0 mm 2 m/S 752 mmHg 17%
    17:00 +39°C° 0 mm 3 m/S 752 mmHg 19%
    18:00 +38°C° 0 mm 4 m/S 752 mmHg 21%
    19:00 +37°C° 0.1 mm 4 m/S 752 mmHg 22%
    20:00 +37°C° 0.1 mm 4 m/S 753 mmHg 23%
    21:00 +36°C° 0.1 mm 4 m/S 753 mmHg 25%
    22:00 +36°C° 0.1 mm 4 m/S 753 mmHg 26%
    23:00 +35°C° 0.1 mm 4 m/S 752 mmHg 26%

    übermorgen, 21 September, Samstag

    Zeit Temperatur Niederschläge Wind Luftdruck Luftfeuchtigkeit
    00:00 +35°C° 0.1 mm 4 m/S 752 mmHg 27%
    01:00 +34°C° 0.1 mm 4 m/S 752 mmHg 29%
    02:00 +34°C° 0.1 mm 5 m/S 752 mmHg 30%
    03:00 +33°C° 0.1 mm 5 m/S 751 mmHg 31%
    04:00 +33°C° 0 mm 5 m/S 752 mmHg 32%
    05:00 +33°C° 0 mm 5 m/S 752 mmHg 32%
    06:00 +32°C° 0 mm 5 m/S 752 mmHg 33%
    07:00 +34°C° 0 mm 6 m/S 752 mmHg 31%
    08:00 +35°C° 0 mm 6 m/S 753 mmHg 30%
    09:00 +36°C° 0 mm 7 m/S 753 mmHg 28%
    10:00 +38°C° 0 mm 7 m/S 753 mmHg 26%
    11:00 +39°C° 0 mm 6 m/S 752 mmHg 24%
    12:00 +40°C° 0 mm 6 m/S 752 mmHg 22%
    13:00 +41°C° 0 mm 5 m/S 752 mmHg 20%
    14:00 +41°C° 0 mm 5 m/S 751 mmHg 19%
    15:00 +42°C° 0 mm 4 m/S 751 mmHg 17%
    16:00 +41°C° 0 mm 5 m/S 751 mmHg 18%
    17:00 +40°C° 0 mm 6 m/S 750 mmHg 19%
    18:00 +39°C° 0 mm 6 m/S 750 mmHg 20%
    19:00 +39°C° 0 mm 6 m/S 751 mmHg 20%
    20:00 +38°C° 0 mm 7 m/S 751 mmHg 21%
    21:00 +38°C° 0 mm 7 m/S 751 mmHg 21%
    22:00 +37°C° 0 mm 8 m/S 751 mmHg 26%
    23:00 +35°C° 0 mm 9 m/S 751 mmHg 32%

    22 September, Sonntag

    Zeit Temperatur Niederschläge Wind Luftdruck Luftfeuchtigkeit
    00:00 +34°C° 0 mm 9 m/S 751 mmHg 37%
    01:00 +33°C° 0 mm 9 m/S 751 mmHg 41%
    02:00 +33°C° 0 mm 8 m/S 751 mmHg 45%
    03:00 +32°C° 0 mm 7 m/S 751 mmHg 48%
    04:00 +32°C° 0 mm 7 m/S 751 mmHg 47%
    05:00 +32°C° 0 mm 7 m/S 751 mmHg 46%
    06:00 +32°C° 0 mm 6 m/S 751 mmHg 45%
    07:00 +33°C° 0 mm 7 m/S 752 mmHg 41%
    08:00 +34°C° 0 mm 7 m/S 752 mmHg 38%
    09:00 +35°C° 0 mm 8 m/S 752 mmHg 34%
    10:00 +37°C° 0 mm 8 m/S 752 mmHg 32%
    11:00 +38°C° 0 mm 7 m/S 752 mmHg 30%
    12:00 +39°C° 0 mm 7 m/S 752 mmHg 27%
    13:00 +40°C° 0 mm 6 m/S 751 mmHg 24%
    14:00 +40°C° 0 mm 4 m/S 751 mmHg 21%
    15:00 +40°C° 0 mm 3 m/S 751 mmHg 18%
    16:00 +39°C° 0 mm 3 m/S 751 mmHg 19%
    17:00 +38°C° 0 mm 3 m/S 751 mmHg 20%
    18:00 +38°C° 0 mm 3 m/S 751 mmHg 21%
    19:00 +37°C° 0 mm 3 m/S 752 mmHg 21%
    20:00 +37°C° 0 mm 2 m/S 752 mmHg 21%
    21:00 +37°C° 0 mm 2 m/S 753 mmHg 21%
    22:00 +37°C° 0 mm 3 m/S 752 mmHg 21%
    23:00 +37°C° 0 mm 5 m/S 752 mmHg 20%

    23 September, Montag

    Zeit Temperatur Niederschläge Wind Luftdruck Luftfeuchtigkeit
    00:00 +36°C° 0 mm 6 m/S 752 mmHg 19%
    01:00 +36°C° 0 mm 6 m/S 752 mmHg 21%
    02:00 +35°C° 0 mm 6 m/S 752 mmHg 23%
    03:00 +34°C° 0 mm 7 m/S 752 mmHg 24%
    04:00 +34°C° 0 mm 5 m/S 752 mmHg 29%
    05:00 +33°C° 0 mm 4 m/S 752 mmHg 33%
    06:00 +31°C° 0 mm 2 m/S 752 mmHg 38%
    07:00 +34°C° 0 mm 3 m/S 753 mmHg 34%
    08:00 +36°C° 0 mm 5 m/S 753 mmHg 29%
    09:00 +38°C° 0 mm 6 m/S 754 mmHg 24%
    10:00 +39°C° 0 mm 6 m/S 753 mmHg 22%
    11:00 +40°C° 0 mm 5 m/S 753 mmHg 20%
    12:00 +41°C° 0 mm 5 m/S 753 mmHg 18%
    13:00 +42°C° 0 mm 4 m/S 752 mmHg 16%
    14:00 +42°C° 0 mm 3 m/S 752 mmHg 15%
    15:00 +41°C° 0 mm 2 m/S 751 mmHg 14%
    16:00 +40°C° 0 mm 2 m/S 751 mmHg 15%
    17:00 +39°C° 0 mm 2 m/S 751 mmHg 17%
    18:00 +38°C° 0 mm 2 m/S 752 mmHg 18%
    19:00 +38°C° 0 mm 2 m/S 752 mmHg 19%
    20:00 +37°C° 0 mm 2 m/S 753 mmHg 20%
    21:00 +35°C° 0 mm 1 m/S 753 mmHg 21%
    22:00 +36°C° 0 mm 2 m/S 753 mmHg 22%
    23:00 +35°C° 0 mm 2 m/S 753 mmHg 23%

    24 September, Dienstag

    Zeit Temperatur Niederschläge Wind Luftdruck Luftfeuchtigkeit
    00:00 +35°C° 0 mm 2 m/S 753 mmHg 24%
    01:00 +34°C° 0 mm 2 m/S 753 mmHg 27%
    02:00 +32°C° 0 mm 2 m/S 753 mmHg 29%
    03:00 +32°C° 0 mm 2 m/S 752 mmHg 32%
    04:00 +31°C° 0 mm 2 m/S 752 mmHg 33%
    05:00 +31°C° 0 mm 2 m/S 753 mmHg 35%
    06:00 +31°C° 0 mm 2 m/S 753 mmHg 36%
    07:00 +32°C° 0 mm 2 m/S 753 mmHg 32%
    08:00 +35°C° 0 mm 3 m/S 753 mmHg 28%
    09:00 +36°C° 0 mm 3 m/S 753 mmHg 24%
    10:00 +37°C° 0 mm 3 m/S 753 mmHg 23%
    11:00 +38°C° 0 mm 2 m/S 753 mmHg 21%
    12:00 +39°C° 0 mm 2 m/S 753 mmHg 19%
    13:00 +39°C° 0 mm 2 m/S 752 mmHg 19%
    14:00 +40°C° 0 mm 2 m/S 752 mmHg 19%
    15:00 +40°C° 0 mm 2 m/S 751 mmHg 19%
    16:00 +39°C° 0 mm 2 m/S 751 mmHg 21%
    17:00 +39°C° 0 mm 2 m/S 751 mmHg 23%
    18:00 +38°C° 0 mm 2 m/S 752 mmHg 25%
    19:00 +37°C° 0 mm 2 m/S 752 mmHg 26%
    20:00 +37°C° 0 mm 2 m/S 752 mmHg 27%
    21:00 +36°C° 0 mm 2 m/S 753 mmHg 28%
    22:00 +36°C° 0 mm 2 m/S 752 mmHg 29%
    23:00 +35°C° 0 mm 2 m/S 752 mmHg 29%
    Mehr zeigen